Location: Newark
(35.5300°N, 14.3000°E)
Time: 23:49:31
(UTC+00:00)

S-56A Canister/Altair - Pass Details

Date: 15 November 2019
Orbit: 633 x 2499 km, 38.9° (Epoch: 11 December)

Event Time Altitude Azimuth Distance (km) Brightness Sun altitude
Rises 19:40:17 0° 276° (W) 3,976 11.9 -45.5°
Reaches altitude 10° 19:43:30 10° 280° (W) 2,748 10.9 -46.1°
Enters shadow 19:44:49 16° 283° (WNW) 2,247 10.4 -46.4°
